User: anonymous   Login
Location: Unspecified
(0.0000°N, 0.0000°E)
Time: 14:45:06
(UTC+00:00)
Language:

Explorer 7 - Orbit

View from above orbital plane
View from above orbital plane
View from above satellite
View from above satellite

Ground track
Ground track

The orbit data is extracted from the following two-line orbital elements,

1    22U 59009A   19200.89531944 -.00000157 +00000-0 +11896-4 0  9995
2    22 050.2825 226.8278 0140010 064.5416 296.9942 14.94885518420476
Epoch (UTC): 19 July 2019 21:29:15
Eccentricity: 0.0140010
inclination: 50.2825°
perigee height: 485 km
apogee height: 680 km
right ascension of ascending node: 226.8278°
argument of perigee: 64.5416°
revolutions per day: 14.94885518
mean anomaly at epoch: 296.9942°
orbit number at epoch: 42047

The dashed part of the orbit path shows where the satellite is in the earth's shadow,  

DLR